Regional Weather Roundup
Issued by NWS Nashville, TN

Home | Current Version | Previous Version | Text Only | Print | Product List | Glossary On
Versions: 1 2 3 4 5 6 7 8 9 10 11 12 13 14 15 16 17 18 19 20 21 22 23 24 25 26 27 28 29 30 31 32 33 34 35 36 37 38 39 40 41 42 43 44 45 46 47 48 49 50
000
ASUS44 KOHX 281110
RWROHX
MIDDLE TENNESSEE HOURLY WEATHER ROUNDUP
NATIONAL WEATHER SERVICE NASHVILLE TN
600 AM CDT TUE MAR 28 2017

NOTE: "FAIR" INDICATES FEW OR NO CLOUDS BELOW 12,000 FEET WITH
NO SIGNIFICANT WEATHER AND/OR OBSTRUCTIONS TO VISIBILITY.

* THESE REPORTS ARE NOT UNDER NWS QUALITY CONTROL AND MAY NOT
  REPORT WEATHER SUCH AS PRECIPITATION AND FOG.


TNZ005>011-023>034-057-059-062>066-078-080-281200
...NORTHERN MIDDLE TENNESSEE...

CITY           SKY/WX    TMP DP  RH WIND       PRES   REMARKS
CLARKSVILLE    MOCLDY    52  51  97 W6        29.95R
CROSSVILLE     CLOUDY    54  53  97 W6        29.95R
GALLATIN       CLOUDY    57  55  94 NW5       29.96R
NASHVILLE      CLOUDY    58  55  90 NW7       29.94R
PORTLAND       CLOUDY    55  54  94 VRB6G13   29.94R FOG
SMYRNA         RAIN      57  56  96 W3          N/A
SPARTA         CLOUDY    57  55  94 CALM      29.92R FOG
WEST NASHVILLE CLOUDY    54  54 100 W6          N/A
$$
TNZ056-058-060-061-075>077-079-093>097-281200
...SOUTHERN MIDDLE TENNESSEE...

CITY           SKY/WX    TMP DP  RH WIND       PRES   REMARKS
COLUMBIA       CLOUDY   N/A N/A N/A CALM      29.93R
FAYETTEVILLE   FOG       57  57 100 CALM      29.95R VSB 1/4
MCMINNVILLE    CLOUDY    57  57 100 S6        29.94R
SHELBYVILLE    CLOUDY    61  61 100 CALM      29.95R
TULLAHOMA      CLOUDY    55  55 100 W5          N/A
WINCHESTER     CLEAR     54  54 100 NW3       29.94R
$$


...KEY TO REMARKS...
VSB - VISIBILITY IN MILES
WCI - WIND CHILL INDEX
HX  - HEAT INDEX




USA.gov is the U.S. government's official web portal to all federal, state and local government web resources and services.